941  
ASUS44 KOUN 272200  
RWROK  
 
WEATHER ROUNDUP FOR OKLAHOMA  
NATIONAL WEATHER SERVICE NORMAN OK  
500 PM CDT MON JUN 27 2016  
 
NOTE: "FAIR" INDICATES FEW OR NO CLOUDS BELOW 12,000 FEET WITH NO  
SIGNIFICANT WEATHER AND/OR S TO VISIBILITY
.  
 
OKZ001>007-009>012-014-015-017-272300-  
NORTHWEST OKLAHOMA AND THE PANHANDLE  
 
CITY SKY/WX TMP DP RH WIND PRES REMARKS
 
GAGE TSTM 77 68 73 SE24G43 30.12R VSB 1/2  
GUYMON SUNNY 95 55 26 VRB5 30.13F HX 93  
ENID/WOODRING PTSUNNY 97 70 41 S3 30.04F HX 103  

 
 
OKZ016-021>023-033>039-044-045-272300-  
SOUTHWEST OKLAHOMA  
 
CITY SKY/WX TMP DP RH WIND PRES REMARKS
 
LAWTON/REGL MOSUNNY 95 68 41 SE8 30.06F HX 99  
LAWTON/FT SILL CLOUDY 90 72 55 CALM 30.05F HX 97  
FREDERICK MOSUNNY 93 67 42 E7 30.03F HX 96  
CLINTON MOSUNNY 91 65 41 VRB5 30.11F HX 93  
HOBART PTSUNNY 94 66 39 CALM 30.08F HX 97  
ALTUS AFB PTSUNNY 91 70 49 VRB2 30.06F HX 97  

 
 
OKZ018>020-024>031-272300-  
CENTRAL OKLAHOMA  
 
CITY SKY/WX TMP DP RH WIND PRES REMARKS
 
OKLAHOMA CITY PTSUNNY 91 68 46 CALM 30.08F HX 95  
OKC/WILEY POST SUNNY 93 67 42 W6 30.08F HX 96  
OKC/TINKER AFB SUNNY 89 72 55 VRB5 30.08F HX 96  
STILLWATER SUNNY 90 68 48 CALM 30.07F HX 94  
GUTHRIE SUNNY 93 67 42 CALM 30.07F HX 96  

 
 
OKZ008-013-054>072-272300-  
NORTHEAST OKLAHOMA  
 
CITY SKY/WX TMP DP RH WIND PRES REMARKS
 
TULSA MOSUNNY 94 72 48 NW8 30.04F HX 102  
TULSA/JONES SUNNY 93 66 40 VRB3 30.06F HX 96  
PONCA CITY SUNNY 91 70 49 E6 30.06F HX 96  
BARTLESVILLE MOSUNNY 92 70 48 CALM 30.07F HX 97  
MUSKOGEE CLOUDY 93 70 46 VRB7 30.06F HX 99  

 
 
OKZ032-040>043-046>053-073>077-272300-  
SOUTH CENTRAL/SOUTHEAST OKLAHOMA  
 
CITY SKY/WX TMP DP RH WIND PRES REMARKS
 
MCALESTER MOSUNNY 92 69 47 VRB7 30.06F HX 97  

 
 
 
 
CLICK HERE TO GO TO PREVIOUS BULLETINS.

The Nexlab OK Page Main Text Page